Weather History for Agassiz, BC

Change the Weather History Date:

Thursday, November 15, 2012

  Actual Average Record
Temperature  
Mean Temperature 45 °F -  
Max Temperature 50 °F - - ()
Min Temperature 40 °F - - ()
Degree Days  
Heating Degree Days 20    
Moisture  
Dew Point 40 °F    
Average Humidity 83    
Maximum Humidity 99    
Minimum Humidity 67    
Precipitation  
Precipitation 0.00 in - - ()
Sea Level Pressure  
Sea Level Pressure 30.11 in    
Wind  
Wind Speed 4 mph ()    
Max Wind Speed 13 mph    
Max Gust Speed 17 mph    
T = Trace of Precipitation, MM = Missing Value Source: Averaged Metar Reports

Daily Weather History Graph

Daily Weather History Graph

Search for Another Location

Airport:

Trip Planner

Search our weather history database for the weather conditions in past years. The results will help you decide how hot, cold, wet, or windy it might be!

Date:

Astronomy

Nov. 15, 2012 Rise Set
Actual Time 7:18 AM PST 4:24 PM PST
Civil Twilight 6:43 AM PST 4:59 PM PST
Nautical Twilight 6:04 AM PST 5:38 PM PST
Astronomical Twilight 5:26 AM PST 6:15 PM PST
Moon 9:26 AM PST (11/15) 6:15 PM PST (11/15)
Length of Visible Light 10h 16m
Length of Day
9h 06m
Waxing Crescent, 5% of the Moon is Illuminated
Nov 15
Waxing Crescent
Nov 20
First Quarter
Nov 28
Full
Dec 6
Last Quarter
Dec 13
New

Hourly Weather History & Observations

Time (PST) Temp. Windchill Dew Point Humidity Pressure Visibility Wind Dir Wind Speed Gust Speed Precip Events Conditions
12:00 AM 44.1 °F - 43.9 °F 99% 30.32 in - South 2.3 mph - N/A   Unknown
1:00 AM 43.7 °F - 43.5 °F 99% 30.30 in - WSW 1.2 mph - N/A   Unknown
2:00 AM 43.9 °F - 43.3 °F 98% 30.29 in - NNE 2.3 mph - N/A   Unknown
3:00 AM 43.7 °F 40.3 °F 41.7 °F 93% 30.27 in - NE 5.8 mph - N/A   Unknown
4:00 AM 43 °F - 40 °F 85% 30.25 in - ENE 9.2 mph - -  
4:00 AM 43.2 °F 37.9 °F 39.9 °F 88% 30.25 in - ENE 9.2 mph - N/A   Unknown
6:00 AM 42.6 °F 36.3 °F 39.2 °F 88% 30.22 in - NE 11.5 mph - N/A   Unknown
7:00 AM 41.9 °F 36.3 °F 38.8 °F 89% 30.20 in - NE 9.2 mph - N/A   Unknown
8:00 AM 42.4 °F 38.1 °F 38.7 °F 86% 30.19 in - NE 6.9 mph - N/A   Unknown
9:00 AM 41.9 °F 37.5 °F 38.3 °F 87% 30.17 in - NE 6.9 mph - N/A   Unknown
10:00 AM 46 °F - 40 °F 73% 30.16 in - NE 2.3 mph - -  
10:00 AM 45.7 °F - 40.1 °F 81% 30.16 in - NE 2.3 mph - N/A   Unknown
11:00 AM 47.1 °F - 39.7 °F 76% 30.13 in - West 2.3 mph - N/A   Unknown
12:00 PM 48.0 °F - 39.6 °F 73% 30.09 in - NNW 4.6 mph - N/A   Unknown
1:00 PM 50.2 °F - 40.8 °F 70% 30.06 in - SSW 3.5 mph - N/A   Unknown
3:00 PM 50.5 °F - 40.5 °F 68% 30.02 in - WNW 3.5 mph - N/A   Unknown
4:00 PM 47 °F - 39 °F 67% 30.01 in - WNW 2.3 mph - -  
4:00 PM 47.5 °F - 39.4 °F 73% 30.01 in - WNW 2.3 mph - N/A   Unknown
5:00 PM 43.5 °F - 38.7 °F 83% 29.99 in - NNE 2.3 mph - N/A   Unknown
6:00 PM 42.4 °F - 38.7 °F 86% 29.99 in - North 1.2 mph - N/A   Unknown
7:00 PM 44.1 °F 40.8 °F 39.0 °F 82% 29.99 in - NE 5.8 mph - N/A   Unknown
8:00 PM 43.9 °F 37.5 °F 37.8 °F 79% 29.98 in - NE 12.7 mph - N/A   Unknown
9:00 PM 42.8 °F 36.6 °F 37.4 °F 81% 29.97 in - NE 11.5 mph 17.3 mph N/A   Unknown
10:00 PM 43 °F - 37 °F 74% 29.98 in - NNE 9.2 mph - -  
10:00 PM 42.8 °F 37.5 °F 37.4 °F 81% 29.98 in - NNE 9.2 mph - N/A   Unknown
11:00 PM 40.8 °F - 38.1 °F 90% 29.97 in - NNW 1.2 mph - N/A   Unknown